Simultaneous Nadir Overpasses (SNOs) Predictions

Prediction of SNOs between AQUA and METOP-A Satellite Orbit:

Table of predicted SNOs for the next 14.0 days since TLE Epoch: 2/28/2015
Index Date (AQUA) Time (AQUA) Lat,Lon (AQUA) SZA (AQUA ) Date (METOP-A) Time (METOP-A) Lat,Lon (METOP-A) SZA (METOP-A ) Distance(km) Time Diff (sec)
1 03/02/2015 11:18:10 73.81, 4.84 81.13 03/02/2015 11:17:12 73.79, 4.85 81.12 2.62 58
2 03/02/2015 12:07:37 -73.88, 172.31 98.80 03/02/2015 12:07:52 -73.87, 172.39 98.82 2.69 15
3 03/02/2015 12:57:14 74.37, -21.17 81.72 03/02/2015 12:58:22 74.36, -19.07 81.61 62.92 68
4 03/05/2015 06:52:27 73.80, 71.28 80.04 03/05/2015 06:51:33 73.83, 71.35 80.07 3.15 54
5 03/05/2015 07:41:54 -73.88,-121.24 99.90 03/05/2015 07:42:14 -73.87,-121.22 99.91 1.12 20
6 03/05/2015 08:31:35 74.57, 44.77 80.85 03/05/2015 08:32:40 74.54, 47.81 80.69 90.12 65
7 03/08/2015 02:26:44 73.79, 137.75 78.93 03/08/2015 02:25:56 73.81, 137.71 78.96 2.28 48
8 03/08/2015 03:16:11 -73.86, -54.77 101.01 03/08/2015 03:16:37 -73.86, -54.84 101.02 2.45 26
9 03/10/2015 22:01:01 73.82,-155.88 77.85 03/10/2015 22:00:18 73.83,-155.82 77.87 2.34 43
10 03/10/2015 22:50:28 -73.89, 11.62 102.09 03/10/2015 22:50:59 -73.89, 11.63 102.10 0.49 31
11 03/13/2015 17:35:16 73.84, -89.47 76.76 03/13/2015 17:34:39 73.85, -89.38 76.78 3.51 37
12 03/13/2015 18:24:43 -73.90, 78.02 103.19 03/13/2015 18:25:20 -73.91, 78.09 103.19 2.28 37




NCC Satellite Simultaneous Nadir Overpasses (SNOs) Prediction Service
